Location: Ecklingerode
(51.5036°N, 10.3122°E)
Time: 12:42:21
(UTC+00:00)

Cosmos 1400 Rocket - Pass Details

Date: 29 October 2020
Orbit: 521 x 568 km, 81.2° (Epoch: 28 November)

Event Time Altitude Azimuth Distance (km) Brightness Sun altitude
Rises 17:07:29 0° 184° (S) 2,751 6.5 -11.5°
Reaches altitude 10° 17:09:40 10° 182° (S) 1,856 5.6 -11.8°
Maximum altitude 17:13:44 68° 100° (E) 607 2.8 -12.5°
Drops below altitude 10° 17:17:48 10° 17° (NNE) 1,849 5.3 -13.1°
Sets 17:19:58 0° 15° (NNE) 2,740 6.2 -13.4°
